Location: Beaurecueil
(43.5122°N, 5.5450°E)
Time: 14:14:52
(UTC+00:00)

Lacrosse 5 rocket - Pass Details

Date: 18 September 2020
Orbit: 460 x 636 km, 57.0° (Epoch: 30 October)

Event Time Altitude Azimuth Distance (km) Brightness Sun altitude
Rises 19:46:44 0° 293° (WNW) 2,785 6.4 -22.7°
Reaches altitude 10° 19:49:51 10° 317° (NW) 1,925 5.0 -23.2°
Maximum altitude 19:52:24 15° 353° (N) 1,651 4.1 -23.6°
Drops below altitude 10° 19:55:00 10° 29° (NNE) 1,979 4.1 -24.0°
Enters shadow 19:55:15 - 31° (NNE) 2,033 4.2 -24.1°
